| time (UTC) | temp F | wind direction | speed MPH | gust MPH | rain 1hr in | rain 24hr in | rain mn in | humidity % | barometer mb |
| 20260903192937 | 88 | 113 | 2.0 | 3.0 | 0.00 | 0.00 | 0.00 | 76 | 1018.0 |
| 20260903192435 | 89 | 91 | 3.0 | 3.0 | 0.00 | 0.00 | 0.00 | 75 | 1018.2 |
| 20260903191930 | 89 | 141 | 2.0 | 2.0 | 0.00 | 0.00 | 0.00 | 74 | 1018.1 |
| 20260903191426 | 90 | 99 | 1.0 | 2.0 | 0.00 | 0.00 | 0.00 | 75 | 1018.1 |
| 20260903190925 | 89 | 137 | 0.0 | 0.0 | 0.00 | 0.00 | 0.00 | 75 | 1017.9 |
| 20260903190425 | 89 | 109 | 2.0 | 3.0 | 0.00 | 0.00 | 0.00 | 75 | 1018.1 |
| 20260903185919 | 91 | 154 | 0.0 | 1.0 | 0.00 | 0.00 | 0.00 | 74 | 1018.1 |
| 20260903185415 | 89 | 122 | 0.0 | 1.0 | 0.00 | 0.00 | 0.00 | 75 | 1018.1 |
| 20260903184910 | 89 | 101 | 2.0 | 3.0 | 0.00 | 0.00 | 0.00 | 75 | 1018.3 |
| 20260903184407 | 88 | 117 | 2.0 | 2.0 | 0.00 | 0.00 | 0.00 | 75 | 1018.2 |
| 20260903183907 | 88 | 178 | 0.0 | 0.0 | 0.00 | 0.00 | 0.00 | 75 | 1018.4 |
| 20260903183401 | 90 | 127 | 1.0 | 1.0 | 0.00 | 0.00 | 0.00 | 75 | 1018.2 |
| 20260903182901 | 90 | 123 | 1.0 | 2.0 | 0.00 | 0.00 | 0.00 | 74 | 1018.6 |
| 20260903182359 | 90 | 139 | 0.0 | 0.0 | 0.00 | 0.00 | 0.00 | 75 | 1018.5 |
| 20260903181854 | 89 | 142 | 2.0 | 2.0 | 0.00 | 0.00 | 0.00 | 77 | 1018.5 |
| 20260903181349 | 89 | 149 | 1.0 | 1.0 | 0.00 | 0.00 | 0.00 | 77 | 1018.7 |
| 20260903180843 | 88 | 66 | 3.0 | 3.0 | 0.00 | 0.00 | 0.00 | 78 | 1018.9 |
| 20260903180337 | 87 | 133 | 1.0 | 1.0 | 0.00 | 0.00 | 0.00 | 79 | 1019.0 |
| 20260903175831 | 86 | 137 | 1.0 | 1.0 | 0.00 | 0.00 | 0.00 | 81 | 1018.9 |
| 20260903175331 | 85 | 150 | 0.0 | 1.0 | 0.00 | 0.00 | 0.00 | 84 | 1018.8 |
| 20260903174825 | 85 | 148 | 1.0 | 2.0 | 0.00 | 0.00 | 0.00 | 83 | 1018.8 |
| 20260903174321 | 85 | 118 | 2.0 | 3.0 | 0.00 | 0.00 | 0.00 | 84 | 1018.9 |
| 20260903173814 | 86 | 84 | 3.0 | 3.0 | 0.00 | 0.00 | 0.00 | 83 | 1019.0 |
| 20260903173310 | 86 | 154 | 0.0 | 1.0 | 0.00 | 0.00 | 0.00 | 80 | 1018.9 |
| 20260903172806 | 86 | 132 | 0.0 | 0.0 | 0.00 | 0.00 | 0.00 | 81 | 1019.2 |
| 20260903172301 | 86 | 146 | 0.0 | 0.0 | 0.00 | 0.00 | 0.00 | 81 | 1019.2 |
| 20260903171756 | 86 | 105 | 2.0 | 2.0 | 0.00 | 0.00 | 0.00 | 80 | 1019.0 |
| 20260903171252 | 86 | 115 | 1.0 | 1.0 | 0.00 | 0.00 | 0.00 | 80 | 1019.1 |
| 20260903170750 | 87 | 150 | 1.0 | 1.0 | 0.00 | 0.00 | 0.00 | 79 | 1019.0 |
| 20260903170246 | 87 | 145 | 0.0 | 1.0 | 0.00 | 0.00 | 0.00 | 79 | 1019.1 |
| 20260903165744 | 86 | 152 | 0.0 | 1.0 | 0.00 | 0.00 | 0.00 | 79 | 1019.2 |
| 20260903165239 | 86 | 148 | 0.0 | 0.0 | 0.00 | 0.00 | 0.00 | 80 | 1019.5 |
| 20260903164739 | 88 | 127 | 0.0 | 1.0 | 0.00 | 0.00 | 0.00 | 77 | 1019.6 |
| 20260903164235 | 87 | 125 | 1.0 | 2.0 | 0.00 | 0.00 | 0.00 | 78 | 1019.7 |
| 20260903163734 | 88 | 154 | 0.0 | 0.0 | 0.00 | 0.00 | 0.00 | 77 | 1019.3 |
| 20260903163231 | 89 | 147 | 1.0 | 1.0 | 0.00 | 0.00 | 0.00 | 78 | 1019.5 |
| 20260903162726 | 88 | 139 | 1.0 | 1.0 | 0.00 | 0.00 | 0.00 | 76 | 1019.5 |
| 20260903162222 | 88 | 88 | 1.0 | 1.0 | 0.00 | 0.00 | 0.00 | 77 | 1019.4 |
| 20260903161718 | 88 | 114 | 1.0 | 2.0 | 0.00 | 0.00 | 0.00 | 77 | 1019.6 |
| 20260903161213 | 88 | 126 | 3.0 | 7.0 | 0.00 | 0.00 | 0.00 | 76 | 1019.5 |
| 20260903160709 | 89 | 129 | 1.0 | 1.0 | 0.00 | 0.00 | 0.00 | 76 | 1019.5 |
| 20260903160202 | 88 | 158 | 1.0 | 2.0 | 0.00 | 0.00 | 0.00 | 76 | 1019.8 |
| 20260903155701 | 87 | 348 | 3.0 | 3.0 | 0.00 | 0.00 | 0.00 | 77 | 1019.9 |
| 20260903155202 | 87 | 106 | 2.0 | 2.0 | 0.00 | 0.00 | 0.00 | 77 | 1019.6 |
| 20260903154657 | 87 | 152 | 0.0 | 0.0 | 0.00 | 0.00 | 0.00 | 79 | 1019.6 |
| 20260903154153 | 87 | 157 | 2.0 | 2.0 | 0.00 | 0.00 | 0.00 | 77 | 1019.6 |
| 20260903153649 | 88 | 84 | 2.0 | 2.0 | 0.00 | 0.00 | 0.00 | 77 | 1019.5 |
| 20260903153145 | 88 | 74 | 2.0 | 2.0 | 0.00 | 0.00 | 0.00 | 76 | 1019.3 |
| 20260903152641 | 88 | 87 | 3.0 | 5.0 | 0.00 | 0.00 | 0.00 | 75 | 1019.6 |
| 20260903152136 | 88 | 129 | 3.0 | 3.0 | 0.00 | 0.00 | 0.00 | 78 | 1019.8 |
| 20260903151636 | 87 | 101 | 0.0 | 1.0 | 0.00 | 0.00 | 0.00 | 77 | 1019.7 |
| 20260903151126 | 87 | 174 | 1.0 | 2.0 | 0.00 | 0.00 | 0.00 | 76 | 1019.8 |
| 20260903150626 | 87 | 121 | 1.0 | 1.0 | 0.00 | 0.00 | 0.00 | 77 | 1019.8 |
| 20260903150120 | 86 | 182 | 2.0 | 3.0 | 0.00 | 0.00 | 0.00 | 79 | 1019.5 |
| 20260903145620 | 86 | 164 | 2.0 | 2.0 | 0.00 | 0.00 | 0.00 | 79 | 1019.7 |
| 20260903145115 | 86 | 96 | 1.0 | 2.0 | 0.00 | 0.00 | 0.00 | 80 | 1019.5 |
| 20260903144614 | 85 | 140 | 0.0 | 0.0 | 0.00 | 0.00 | 0.00 | 82 | 1019.4 |
| 20260903144110 | 86 | 115 | 2.0 | 3.0 | 0.00 | 0.00 | 0.00 | 83 | 1019.5 |
| 20260903143606 | 85 | 104 | 1.0 | 2.0 | 0.00 | 0.00 | 0.00 | 85 | 1019.4 |
| 20260903143103 | 84 | 132 | 0.0 | 1.0 | 0.00 | 0.00 | 0.00 | 87 | 1019.5 |
| 20260903142602 | 84 | 109 | 1.0 | 2.0 | 0.00 | 0.00 | 0.00 | 87 | 1019.3 |
| 20260903142059 | 84 | 118 | 1.0 | 1.0 | 0.00 | 0.00 | 0.00 | 86 | 1019.4 |
| 20260903141554 | 84 | 130 | 0.0 | 0.0 | 0.00 | 0.00 | 0.00 | 86 | 1019.7 |
| 20260903141050 | 84 | 95 | 3.0 | 3.0 | 0.00 | 0.00 | 0.00 | 82 | 1019.6 |
| 20260903140545 | 85 | 136 | 0.0 | 1.0 | 0.00 | 0.00 | 0.00 | 81 | 1019.8 |
| 20260903140040 | 84 | 120 | 2.0 | 2.0 | 0.00 | 0.00 | 0.00 | 80 | 1019.8 |
| 20260903135536 | 86 | 115 | 1.0 | 1.0 | 0.00 | 0.00 | 0.00 | 80 | 1019.6 |
| 20260903135030 | 87 | 75 | 1.0 | 2.0 | 0.00 | 0.00 | 0.00 | 78 | 1019.4 |
| 20260903134530 | 87 | 123 | 0.0 | 0.0 | 0.00 | 0.00 | 0.00 | 80 | 1019.5 |
| 20260903134026 | 85 | 163 | 2.0 | 3.0 | 0.00 | 0.00 | 0.00 | 81 | 1019.4 |
| 20260903133523 | 85 | 126 | 0.0 | 1.0 | 0.00 | 0.00 | 0.00 | 82 | 1019.5 |
| 20260903133019 | 86 | 125 | 0.0 | 0.0 | 0.00 | 0.00 | 0.00 | 83 | 1019.3 |
| 20260903132514 | 87 | 164 | 0.0 | 1.0 | 0.00 | 0.00 | 0.00 | 80 | 1019.5 |
| 20260903132009 | 86 | 137 | 0.0 | 0.0 | 0.00 | 0.00 | 0.00 | 81 | 1019.4 |
| 20260903131504 | 87 | 135 | 0.0 | 1.0 | 0.00 | 0.00 | 0.00 | 80 | 1019.4 |
| 20260903131002 | 87 | 144 | 0.0 | 0.0 | 0.00 | 0.00 | 0.00 | 81 | 1019.3 |
| 20260903130458 | 86 | 145 | 0.0 | 0.0 | 0.00 | 0.00 | 0.00 | 83 | 1019.4 |
| 20260903125956 | 85 | 133 | 0.0 | 0.0 | 0.00 | 0.00 | 0.00 | 85 | 1019.2 |
| 20260903125450 | 84 | 142 | 0.0 | 0.0 | 0.00 | 0.00 | 0.00 | 89 | 1019.3 |
| 20260903124945 | 83 | 140 | 0.0 | 0.0 | 0.00 | 0.00 | 0.00 | 92 | 1019.3 |
| 20260903124440 | 82 | 147 | 0.0 | 0.0 | 0.00 | 0.00 | 0.00 | 94 | 1019.1 |
| 20260903123939 | 81 | 145 | 0.0 | 0.0 | 0.00 | 0.00 | 0.00 | 95 | 1019.2 |
| 20260903123434 | 80 | 148 | 0.0 | 0.0 | 0.00 | 0.00 | 0.00 | 95 | 1019.2 |
| 20260903122932 | 79 | 142 | 0.0 | 0.0 | 0.00 | 0.00 | 0.00 | 96 | 1019.3 |
| 20260903122427 | 79 | 143 | 0.0 | 0.0 | 0.00 | 0.00 | 0.00 | 96 | 1019.1 |
| 20260903121926 | 79 | 143 | 0.0 | 0.0 | 0.00 | 0.00 | 0.00 | 96 | 1019.2 |
| 20260903121421 | 79 | 143 | 0.0 | 0.0 | 0.00 | 0.00 | 0.00 | 96 | 1019.3 |
| 20260903120918 | 78 | 143 | 0.0 | 0.0 | 0.00 | 0.00 | 0.00 | 96 | 1019.3 |
| 20260903120416 | 78 | 143 | 0.0 | 0.0 | 0.00 | 0.00 | 0.00 | 96 | 1019.2 |
| 20260903115914 | 78 | 143 | 0.0 | 0.0 | 0.00 | 0.00 | 0.00 | 96 | 1019.1 |
| 20260903115409 | 78 | 143 | 0.0 | 0.0 | 0.00 | 0.00 | 0.00 | 96 | 1019.3 |
| 20260903114903 | 78 | 143 | 0.0 | 0.0 | 0.00 | 0.00 | 0.00 | 96 | 1019.2 |
| 20260903114359 | 77 | 143 | 0.0 | 0.0 | 0.00 | 0.00 | 0.00 | 96 | 1018.9 |
| 20260903113855 | 77 | 143 | 0.0 | 0.0 | 0.00 | 0.00 | 0.00 | 96 | 1018.8 |
| 20260903113350 | 77 | 143 | 0.0 | 0.0 | 0.00 | 0.00 | 0.00 | 96 | 1018.7 |
| 20260903112846 | 77 | 143 | 0.0 | 0.0 | 0.00 | 0.00 | 0.00 | 96 | 1018.7 |
| 20260903112342 | 77 | 143 | 0.0 | 0.0 | 0.00 | 0.00 | 0.00 | 96 | 1018.8 |
| 20260903111840 | 77 | 143 | 0.0 | 0.0 | 0.00 | 0.00 | 0.00 | 96 | 1018.6 |
| 20260903111335 | 77 | 143 | 0.0 | 0.0 | 0.00 | 0.00 | 0.00 | 96 | 1018.5 |
| 20260903110831 | 77 | 143 | 0.0 | 0.0 | 0.00 | 0.00 | 0.00 | 96 | 1018.4 |
| 20260903110326 | 77 | 143 | 0.0 | 0.0 | 0.00 | 0.00 | 0.00 | 96 | 1018.5 |
| 20260903105826 | 77 | 143 | 0.0 | 0.0 | 0.00 | 0.00 | 0.00 | 96 | 1018.4 |
| 20260903105326 | 77 | 143 | 0.0 | 0.0 | 0.00 | 0.00 | 0.00 | 95 | 1018.3 |
| 20260903104821 | 77 | 143 | 0.0 | 0.0 | 0.00 | 0.00 | 0.00 | 96 | 1018.2 |
| 20260903104316 | 77 | 143 | 0.0 | 0.0 | 0.00 | 0.00 | 0.00 | 95 | 1018.0 |
| 20260903103813 | 77 | 143 | 0.0 | 0.0 | 0.00 | 0.00 | 0.00 | 95 | 1017.9 |
| 20260903103308 | 77 | 143 | 0.0 | 0.0 | 0.00 | 0.00 | 0.00 | 95 | 1018.1 |
| 20260903102804 | 77 | 143 | 0.0 | 0.0 | 0.00 | 0.00 | 0.00 | 96 | 1017.8 |
| 20260903102258 | 77 | 143 | 0.0 | 0.0 | 0.00 | 0.00 | 0.00 | 96 | 1017.8 |
| 20260903101756 | 77 | 143 | 0.0 | 0.0 | 0.00 | 0.00 | 0.00 | 96 | 1017.8 |
| 20260903101252 | 77 | 143 | 0.0 | 0.0 | 0.00 | 0.00 | 0.00 | 95 | 1017.7 |
| 20260903100748 | 77 | 143 | 0.0 | 0.0 | 0.00 | 0.00 | 0.00 | 96 | 1017.6 |
| 20260903100242 | 77 | 143 | 0.0 | 0.0 | 0.00 | 0.00 | 0.00 | 95 | 1017.5 |
| 20260903095739 | 77 | 143 | 0.0 | 0.0 | 0.00 | 0.00 | 0.00 | 95 | 1017.6 |
| 20260903095234 | 77 | 143 | 0.0 | 0.0 | 0.00 | 0.00 | 0.00 | 95 | 1017.7 |
| 20260903094729 | 77 | 143 | 0.0 | 0.0 | 0.00 | 0.00 | 0.00 | 95 | 1017.6 |
| 20260903094224 | 77 | 143 | 0.0 | 0.0 | 0.00 | 0.00 | 0.00 | 95 | 1017.6 |
| 20260903093720 | 77 | 143 | 0.0 | 0.0 | 0.00 | 0.00 | 0.00 | 95 | 1017.5 |
| 20260903093215 | 77 | 143 | 0.0 | 0.0 | 0.00 | 0.00 | 0.00 | 95 | 1017.6 |
| 20260903092714 | 77 | 143 | 0.0 | 0.0 | 0.00 | 0.00 | 0.00 | 95 | 1017.3 |
| 20260903092209 | 77 | 143 | 0.0 | 0.0 | 0.00 | 0.00 | 0.00 | 95 | 1017.5 |
| 20260903091708 | 77 | 143 | 0.0 | 0.0 | 0.00 | 0.00 | 0.00 | 95 | 1017.6 |
| 20260903091203 | 77 | 143 | 0.0 | 0.0 | 0.00 | 0.00 | 0.00 | 95 | 1017.6 |
| 20260903090658 | 77 | 143 | 0.0 | 0.0 | 0.00 | 0.00 | 0.00 | 95 | 1017.8 |
| 20260903090156 | 77 | 143 | 0.0 | 0.0 | 0.00 | 0.00 | 0.00 | 95 | 1017.6 |
| 20260903085655 | 77 | 143 | 0.0 | 0.0 | 0.00 | 0.00 | 0.00 | 95 | 1017.7 |
| 20260903085151 | 77 | 143 | 0.0 | 0.0 | 0.00 | 0.00 | 0.00 | 95 | 1017.5 |
| 20260903084649 | 77 | 143 | 0.0 | 0.0 | 0.00 | 0.00 | 0.00 | 95 | 1017.4 |
| 20260903084143 | 77 | 143 | 0.0 | 0.0 | 0.00 | 0.00 | 0.00 | 95 | 1017.5 |
| 20260903083639 | 77 | 143 | 0.0 | 0.0 | 0.00 | 0.00 | 0.00 | 95 | 1017.6 |
| 20260903083133 | 78 | 143 | 0.0 | 0.0 | 0.00 | 0.00 | 0.00 | 95 | 1017.5 |
| 20260903082628 | 78 | 143 | 0.0 | 0.0 | 0.00 | 0.00 | 0.00 | 95 | 1017.6 |
| 20260903082124 | 77 | 143 | 0.0 | 0.0 | 0.00 | 0.00 | 0.00 | 95 | 1017.4 |
| 20260903081618 | 77 | 143 | 0.0 | 0.0 | 0.00 | 0.00 | 0.00 | 95 | 1017.5 |
| 20260903081114 | 78 | 143 | 0.0 | 0.0 | 0.00 | 0.00 | 0.00 | 95 | 1017.4 |
| 20260903080610 | 78 | 143 | 0.0 | 0.0 | 0.00 | 0.00 | 0.00 | 95 | 1017.4 |
| 20260903080108 | 78 | 143 | 0.0 | 0.0 | 0.00 | 0.00 | 0.00 | 95 | 1017.5 |
| 20260903075607 | 78 | 143 | 0.0 | 0.0 | 0.00 | 0.00 | 0.00 | 95 | 1017.7 |
| 20260903075102 | 78 | 143 | 0.0 | 0.0 | 0.00 | 0.00 | 0.00 | 95 | 1017.5 |
| 20260903074601 | 78 | 143 | 0.0 | 0.0 | 0.00 | 0.00 | 0.00 | 95 | 1017.6 |
| 20260903074056 | 78 | 143 | 0.0 | 0.0 | 0.00 | 0.00 | 0.00 | 95 | 1017.6 |
| 20260903073552 | 78 | 143 | 0.0 | 0.0 | 0.00 | 0.00 | 0.00 | 95 | 1017.6 |
| 20260903073048 | 78 | 143 | 0.0 | 0.0 | 0.00 | 0.00 | 0.00 | 95 | 1017.8 |
| 20260903072543 | 78 | 143 | 0.0 | 0.0 | 0.00 | 0.00 | 0.00 | 95 | 1017.9 |
| 20260903072039 | 78 | 143 | 0.0 | 0.0 | 0.00 | 0.00 | 0.00 | 95 | 1018.0 |
| 20260903071536 | 78 | 143 | 0.0 | 0.0 | 0.00 | 0.00 | 0.00 | 95 | 1018.0 |
| 20260903071031 | 78 | 143 | 0.0 | 0.0 | 0.00 | 0.00 | 0.00 | 95 | 1018.0 |
| 20260903070530 | 78 | 143 | 0.0 | 0.0 | 0.00 | 0.00 | 0.00 | 95 | 1018.1 |
| 20260903070026 | 78 | 143 | 0.0 | 0.0 | 0.00 | 0.00 | 0.00 | 95 | 1018.2 |
| 20260903065519 | 78 | 143 | 0.0 | 0.0 | 0.00 | 0.00 | 0.00 | 95 | 1018.1 |
| 20260903065014 | 78 | 143 | 0.0 | 0.0 | 0.00 | 0.00 | 0.00 | 95 | 1018.3 |
| 20260903064514 | 78 | 143 | 0.0 | 0.0 | 0.00 | 0.00 | 0.00 | 95 | 1018.3 |
| 20260903064009 | 78 | 143 | 0.0 | 0.0 | 0.00 | 0.00 | 0.00 | 95 | 1018.1 |
| 20260903063504 | 78 | 143 | 0.0 | 0.0 | 0.00 | 0.00 | 0.00 | 95 | 1018.3 |
| 20260903063000 | 78 | 143 | 0.0 | 0.0 | 0.00 | 0.00 | 0.00 | 95 | 1018.3 |
| 20260903062454 | 78 | 143 | 0.0 | 0.0 | 0.00 | 0.00 | 0.00 | 95 | 1018.4 |
| 20260903061949 | 78 | 143 | 0.0 | 0.0 | 0.00 | 0.00 | 0.00 | 94 | 1018.3 |
| 20260903061444 | 78 | 143 | 0.0 | 0.0 | 0.00 | 0.00 | 0.00 | 94 | 1018.7 |
| 20260903060939 | 78 | 143 | 0.0 | 0.0 | 0.00 | 0.00 | 0.00 | 94 | 1018.6 |
| 20260903060434 | 78 | 143 | 0.0 | 0.0 | 0.00 | 0.00 | 0.00 | 94 | 1018.5 |
| 20260903055933 | 78 | 143 | 0.0 | 0.0 | 0.00 | 0.00 | 0.00 | 94 | 1018.6 |
| 20260903055430 | 78 | 143 | 0.0 | 0.0 | 0.00 | 0.00 | 0.00 | 94 | 1018.7 |
| 20260903054925 | 78 | 143 | 0.0 | 0.0 | 0.00 | 0.00 | 0.00 | 94 | 1019.0 |
| 20260903054420 | 78 | 143 | 0.0 | 0.0 | 0.00 | 0.00 | 0.00 | 94 | 1018.8 |
| 20260903053916 | 78 | 143 | 0.0 | 0.0 | 0.00 | 0.00 | 0.00 | 94 | 1018.9 |
| 20260903053416 | 78 | 143 | 0.0 | 0.0 | 0.00 | 0.00 | 0.00 | 94 | 1018.7 |
| 20260903052912 | 79 | 143 | 0.0 | 0.0 | 0.00 | 0.00 | 0.00 | 94 | 1018.8 |
| 20260903052408 | 79 | 143 | 0.0 | 0.0 | 0.00 | 0.00 | 0.00 | 94 | 1018.9 |
| 20260903051903 | 79 | 143 | 0.0 | 0.0 | 0.00 | 0.00 | 0.00 | 94 | 1019.1 |
| 20260903051359 | 78 | 143 | 0.0 | 0.0 | 0.00 | 0.00 | 0.00 | 94 | 1019.0 |
| 20260903050854 | 78 | 143 | 0.0 | 0.0 | 0.00 | 0.00 | 0.00 | 94 | 1019.0 |
| 20260903050352 | 79 | 143 | 0.0 | 0.0 | 0.00 | 0.00 | 0.00 | 94 | 1018.9 |
| 20260903045847 | 79 | 143 | 0.0 | 0.0 | 0.00 | 0.00 | 0.00 | 94 | 1019.1 |
| 20260903045343 | 79 | 143 | 0.0 | 0.0 | 0.00 | 0.00 | 0.00 | 94 | 1019.2 |
| 20260903044840 | 79 | 143 | 0.0 | 0.0 | 0.00 | 0.00 | 0.00 | 93 | 1019.1 |
| 20260903044340 | 79 | 143 | 0.0 | 0.0 | 0.00 | 0.00 | 0.00 | 93 | 1019.2 |
| 20260903043836 | 79 | 143 | 0.0 | 0.0 | 0.00 | 0.00 | 0.00 | 93 | 1019.6 |
| 20260903043331 | 79 | 143 | 0.0 | 0.0 | 0.00 | 0.00 | 0.00 | 93 | 1019.4 |
| 20260903042830 | 79 | 143 | 0.0 | 0.0 | 0.00 | 0.00 | 0.00 | 93 | 1019.5 |
| 20260903042325 | 79 | 143 | 0.0 | 0.0 | 0.00 | 0.00 | 0.00 | 93 | 1019.2 |
| 20260903041822 | 79 | 143 | 0.0 | 0.0 | 0.00 | 0.00 | 0.00 | 93 | 1019.0 |
| 20260903041318 | 79 | 143 | 0.0 | 0.0 | 0.00 | 0.00 | 0.00 | 93 | 1019.4 |
| 20260903040813 | 79 | 143 | 0.0 | 0.0 | 0.00 | 0.00 | 0.00 | 93 | 1019.2 |
| 20260903040312 | 79 | 144 | 0.0 | 0.0 | 0.00 | 0.00 | 0.00 | 93 | 1019.4 |
| 20260903035808 | 79 | 144 | 0.0 | 0.0 | 0.00 | 0.03 | 0.03 | 93 | 1019.3 |
| 20260903035306 | 79 | 153 | 0.0 | 0.0 | 0.00 | 0.03 | 0.03 | 93 | 1019.3 |
| 20260903034759 | 79 | 160 | 0.0 | 0.0 | 0.00 | 0.03 | 0.03 | 93 | 1019.2 |
| 20260903034253 | 79 | 161 | 0.0 | 0.0 | 0.00 | 0.03 | 0.03 | 93 | 1019.4 |
| 20260903033749 | 79 | 160 | 0.0 | 0.0 | 0.00 | 0.03 | 0.03 | 93 | 1019.4 |
| 20260903033244 | 79 | 146 | 0.0 | 0.0 | 0.00 | 0.03 | 0.03 | 93 | 1019.6 |
| 20260903032738 | 79 | 145 | 0.0 | 0.0 | 0.00 | 0.03 | 0.03 | 92 | 1019.5 |
| 20260903032234 | 79 | 145 | 0.0 | 0.0 | 0.00 | 0.03 | 0.03 | 92 | 1019.4 |
| 20260903031729 | 80 | 145 | 0.0 | 0.0 | 0.00 | 0.03 | 0.03 | 92 | 1019.0 |
| 20260903031223 | 80 | 147 | 0.0 | 0.0 | 0.00 | 0.03 | 0.03 | 92 | 1019.4 |
| 20260903030719 | 80 | 148 | 0.0 | 0.0 | 0.00 | 0.03 | 0.03 | 92 | 1019.7 |
| 20260903030215 | 80 | 149 | 0.0 | 0.0 | 0.00 | 0.03 | 0.03 | 92 | 1019.6 |
| 20260903025710 | 80 | 148 | 0.0 | 0.0 | 0.00 | 0.03 | 0.03 | 91 | 1019.5 |
| 20260903025206 | 80 | 146 | 0.0 | 0.0 | 0.00 | 0.03 | 0.03 | 91 | 1019.5 |
| 20260903024706 | 80 | 148 | 0.0 | 0.0 | 0.00 | 0.03 | 0.03 | 91 | 1019.3 |
| 20260903024205 | 80 | 150 | 0.0 | 0.0 | 0.00 | 0.03 | 0.03 | 91 | 1019.5 |
| 20260903023701 | 80 | 136 | 0.0 | 0.0 | 0.00 | 0.03 | 0.03 | 91 | 1019.6 |
| 20260903023156 | 80 | 150 | 0.0 | 0.0 | 0.00 | 0.03 | 0.03 | 91 | 1019.6 |
| 20260903022655 | 80 | 144 | 0.0 | 0.0 | 0.00 | 0.03 | 0.03 | 90 | 1019.5 |
| 20260903022150 | 80 | 148 | 0.0 | 0.0 | 0.00 | 0.03 | 0.03 | 90 | 1019.5 |
| 20260903021649 | 80 | 133 | 0.0 | 0.0 | 0.00 | 0.03 | 0.03 | 90 | 1019.5 |
| 20260903021144 | 80 | 118 | 0.0 | 0.0 | 0.00 | 0.03 | 0.03 | 90 | 1019.6 |
| 20260903020639 | 80 | 145 | 0.0 | 0.0 | 0.00 | 0.03 | 0.03 | 89 | 1019.5 |
| 20260903020134 | 81 | 146 | 0.0 | 0.0 | 0.00 | 0.03 | 0.03 | 89 | 1019.6 |
| 20260903015630 | 81 | 147 | 0.0 | 0.0 | 0.00 | 0.03 | 0.03 | 89 | 1019.4 |
| 20260903015125 | 81 | 125 | 0.0 | 1.0 | 0.00 | 0.03 | 0.03 | 89 | 1019.5 |
| 20260903014624 | 81 | 150 | 0.0 | 0.0 | 0.00 | 0.03 | 0.03 | 89 | 1019.3 |
| 20260903014124 | 81 | 159 | 0.0 | 0.0 | 0.00 | 0.03 | 0.03 | 89 | 1019.4 |
| 20260903013619 | 81 | 139 | 0.0 | 0.0 | 0.00 | 0.03 | 0.03 | 89 | 1019.1 |
| 20260903013114 | 81 | 124 | 2.0 | 2.0 | 0.00 | 0.03 | 0.03 | 90 | 1019.4 |
| 20260903012612 | 81 | 140 | 0.0 | 0.0 | 0.00 | 0.03 | 0.03 | 90 | 1019.5 |
| 20260903012111 | 81 | 133 | 1.0 | 1.0 | 0.00 | 0.03 | 0.03 | 91 | 1019.2 |
| 20260903011606 | 81 | 111 | 0.0 | 1.0 | 0.00 | 0.03 | 0.03 | 91 | 1019.4 |
| 20260903011106 | 81 | 140 | 0.0 | 1.0 | 0.00 | 0.03 | 0.03 | 91 | 1019.3 |
| 20260903010601 | 81 | 145 | 0.0 | 0.0 | 0.00 | 0.03 | 0.03 | 91 | 1019.3 |
| 20260903010059 | 81 | 149 | 0.0 | 0.0 | 0.00 | 0.03 | 0.03 | 91 | 1019.2 |
| 20260903005554 | 81 | 143 | 0.0 | 0.0 | 0.00 | 0.03 | 0.03 | 91 | 1019.4 |
| 20260903005049 | 81 | 147 | 0.0 | 0.0 | 0.00 | 0.03 | 0.03 | 91 | 1019.1 |
| 20260903004544 | 81 | 147 | 0.0 | 0.0 | 0.00 | 0.03 | 0.03 | 90 | 1019.2 |
| 20260903004040 | 82 | 149 | 0.0 | 0.0 | 0.00 | 0.03 | 0.03 | 90 | 1019.2 |
| 20260903003535 | 82 | 149 | 0.0 | 1.0 | 0.00 | 0.03 | 0.03 | 90 | 1019.3 |
| 20260903003030 | 82 | 148 | 0.0 | 0.0 | 0.00 | 0.03 | 0.03 | 90 | 1019.4 |
| 20260903002530 | 82 | 141 | 0.0 | 0.0 | 0.00 | 0.03 | 0.03 | 90 | 1019.3 |
| 20260903002019 | 82 | 142 | 0.0 | 0.0 | 0.00 | 0.03 | 0.03 | 90 | 1019.2 |
| 20260903001514 | 82 | 150 | 0.0 | 0.0 | 0.00 | 0.03 | 0.03 | 90 | 1019.1 |
| 20260903001014 | 82 | 146 | 0.0 | 0.0 | 0.00 | 0.03 | 0.03 | 90 | 1019.0 |
| 20260903000509 | 82 | 147 | 0.0 | 0.0 | 0.00 | 0.03 | 0.03 | 90 | 1019.0 |
| 20260903000008 | 82 | 149 | 0.0 | 1.0 | 0.00 | 0.03 | 0.03 | 89 | 1019.0 |
| 20260902235502 | 82 | 156 | 0.0 | 1.0 | 0.00 | 0.03 | 0.03 | 90 | 1019.0 |
| 20260902234957 | 82 | 148 | 0.0 | 0.0 | 0.00 | 0.03 | 0.03 | 89 | 1019.1 |
| 20260902234452 | 82 | 144 | 0.0 | 0.0 | 0.00 | 0.03 | 0.03 | 89 | 1019.0 |
| 20260902233950 | 82 | 147 | 0.0 | 0.0 | 0.00 | 0.03 | 0.03 | 89 | 1018.9 |
| 20260902233450 | 82 | 142 | 0.0 | 0.0 | 0.00 | 0.03 | 0.03 | 89 | 1018.9 |
| 20260902232945 | 82 | 140 | 0.0 | 0.0 | 0.00 | 0.03 | 0.03 | 89 | 1018.8 |
| 20260902232439 | 82 | 159 | 0.0 | 0.0 | 0.00 | 0.03 | 0.03 | 89 | 1018.9 |
| 20260902231938 | 82 | 137 | 1.0 | 1.0 | 0.00 | 0.03 | 0.03 | 89 | 1018.7 |
| 20260902231434 | 82 | 124 | 2.0 | 2.0 | 0.00 | 0.03 | 0.03 | 89 | 1018.4 |
| 20260902230928 | 82 | 128 | 0.0 | 0.0 | 0.00 | 0.03 | 0.03 | 89 | 1018.6 |
| 20260902230427 | 82 | 144 | 0.0 | 0.0 | 0.00 | 0.03 | 0.03 | 89 | 1018.7 |
| 20260902225922 | 82 | 120 | 2.0 | 2.0 | 0.00 | 0.03 | 0.03 | 88 | 1018.6 |
| 20260902225417 | 82 | 117 | 0.0 | 0.0 | 0.00 | 0.03 | 0.03 | 88 | 1018.9 |
| 20260902224916 | 82 | 149 | 1.0 | 1.0 | 0.00 | 0.03 | 0.03 | 88 | 1018.8 |
| 20260902224415 | 82 | 140 | 1.0 | 1.0 | 0.00 | 0.03 | 0.03 | 88 | 1018.7 |
| 20260902223912 | 82 | 152 | 1.0 | 2.0 | 0.00 | 0.03 | 0.03 | 88 | 1018.6 |
| 20260902223407 | 82 | 143 | 1.0 | 1.0 | 0.00 | 0.03 | 0.03 | 88 | 1018.6 |
| 20260902222901 | 82 | 93 | 2.0 | 2.0 | 0.00 | 0.03 | 0.03 | 87 | 1018.4 |
| 20260902222359 | 82 | 79 | 2.0 | 3.0 | 0.00 | 0.03 | 0.03 | 87 | 1018.4 |
| 20260902221854 | 82 | 145 | 0.0 | 0.0 | 0.00 | 0.03 | 0.03 | 88 | 1018.4 |
| 20260902221353 | 83 | 122 | 1.0 | 1.0 | 0.00 | 0.03 | 0.03 | 87 | 1018.8 |
| 20260902220849 | 83 | 91 | 1.0 | 1.0 | 0.00 | 0.03 | 0.03 | 87 | 1018.4 |
| 20260902220348 | 83 | 151 | 0.0 | 0.0 | 0.00 | 0.03 | 0.03 | 87 | 1018.5 |
| 20260902215843 | 83 | 150 | 0.0 | 0.0 | 0.00 | 0.03 | 0.03 | 87 | 1018.6 |
| 20260902215338 | 83 | 109 | 1.0 | 2.0 | 0.00 | 0.03 | 0.03 | 87 | 1018.6 |
| 20260902214834 | 83 | 140 | 0.0 | 1.0 | 0.00 | 0.03 | 0.03 | 87 | 1018.8 |
| 20260902214333 | 83 | 126 | 1.0 | 1.0 | 0.00 | 0.03 | 0.03 | 87 | 1018.7 |
| 20260902213828 | 83 | 148 | 0.0 | 0.0 | 0.00 | 0.03 | 0.03 | 88 | 1018.7 |
| 20260902213324 | 83 | 130 | 1.0 | 2.0 | 0.00 | 0.03 | 0.03 | 88 | 1018.5 |
| 20260902212822 | 83 | 155 | 0.0 | 1.0 | 0.00 | 0.03 | 0.03 | 88 | 1018.8 |
| 20260902212319 | 83 | 146 | 1.0 | 1.0 | 0.00 | 0.03 | 0.03 | 89 | 1018.6 |
| 20260902211815 | 83 | 126 | 1.0 | 2.0 | 0.00 | 0.03 | 0.03 | 88 | 1018.7 |
| 20260902211311 | 83 | 114 | 0.0 | 0.0 | 0.00 | 0.03 | 0.03 | 89 | 1018.6 |
| 20260902210806 | 83 | 150 | 0.0 | 0.0 | 0.00 | 0.03 | 0.03 | 90 | 1018.9 |
| 20260902210301 | 83 | 148 | 0.0 | 1.0 | 0.00 | 0.03 | 0.03 | 89 | 1018.8 |
| 20260902205759 | 83 | 135 | 0.0 | 0.0 | 0.00 | 0.03 | 0.03 | 89 | 1018.6 |
| 20260902205254 | 82 | 146 | 0.0 | 0.0 | 0.00 | 0.03 | 0.03 | 88 | 1018.8 |
| 20260902204749 | 82 | 150 | 0.0 | 0.0 | 0.05 | 0.03 | 0.03 | 88 | 1018.9 |
| 20260902204244 | 82 | 139 | 1.0 | 2.0 | 0.05 | 0.03 | 0.03 | 86 | 1019.0 |
| 20260902203745 | 84 | 138 | 3.0 | 3.0 | 0.00 | 0.02 | 0.02 | 84 | 1018.9 |
| 20260902203245 | 84 | 96 | 2.0 | 3.0 | 0.00 | 0.02 | 0.02 | 82 | 1019.2 |
| 20260902202740 | 85 | 137 | 1.0 | 1.0 | 0.00 | 0.02 | 0.02 | 82 | 1018.8 |
| 20260902202236 | 85 | 135 | 0.0 | 1.0 | 0.00 | 0.02 | 0.02 | 82 | 1019.0 |
| 20260902201733 | 85 | 136 | 2.0 | 2.0 | 0.00 | 0.02 | 0.02 | 82 | 1018.8 |
| 20260902201231 | 85 | 91 | 1.0 | 2.0 | 0.00 | 0.02 | 0.02 | 81 | 1018.7 |
| 20260902200727 | 86 | 72 | 1.0 | 1.0 | 0.00 | 0.02 | 0.02 | 81 | 1018.4 |
| 20260902200223 | 85 | 109 | 2.0 | 2.0 | 0.00 | 0.02 | 0.02 | 80 | 1018.9 |
| 20260902195718 | 86 | 137 | 2.0 | 2.0 | 0.00 | 0.02 | 0.02 | 80 | 1019.0 |
| 20260902195217 | 86 | 118 | 4.0 | 7.0 | 0.00 | 0.02 | 0.02 | 80 | 1019.0 |
| 20260902194717 | 85 | 87 | 2.0 | 3.0 | 0.00 | 0.02 | 0.02 | 81 | 1019.1 |
| 20260902194212 | 86 | 156 | 1.0 | 1.0 | 0.00 | 0.02 | 0.02 | 80 | 1018.9 |
| 20260902193707 | 87 | 162 | 1.0 | 1.0 | 0.00 | 0.02 | 0.02 | 79 | 1018.8 |